Medicine Lodge, KS

2:18 PM CST on December 05, 2019 (GMT -0600)
Medicine Lodge

Weather History for KP28 - October, 2019

Change the Weather History Date:

Friday, October 25, 2019

  Actual Average Record
Temperature  
Mean Temperature 45 °F 55 °F  
Max Temperature 57 °F 68 °F 90 °F (1939)
Min Temperature 32 °F 43 °F 21 °F (1898)
Degree Days  
Heating Degree Days 20 10  
Month to date heating degree days 212 167  
Since 1 July heating degree days 212 201  
Cooling Degree Days 0 0  
Month to date cooling degree days 23 37  
Year to date cooling degree days 1837 1768  
Moisture  
Dew Point 26 °F    
Average Humidity 50    
Maximum Humidity 75    
Minimum Humidity 24    
Precipitation  
Precipitation 0.00 in 0.08 in 1.30 in (1899)
Month to date precipitation 1.79 2.37  
Year to date precipitation 30.37 24.82  
Snow  
Snow 0.00 in 0.00 in - ()
Month to date snowfall 0.0 0.0  
Since 1 July snowfall 0.0 0.0  
Since 1 September snowfall 0.0 0.0  
Snow Depth 0.00 in    
Sea Level Pressure  
Sea Level Pressure 30.28 in    
Wind  
Wind Speed 8 mph (North)    
Max Wind Speed 18 mph    
Max Gust Speed 28 mph    
T = Trace of Precipitation, MM = Missing Value Source: NWS Daily Summary

Daily Weather History Graph

Daily Weather History Graph

Search for Another Location

Airport or City:

Astronomy

Oct. 25, 2019 Rise Set
Actual Time 7:51 AM CDT 6:44 PM CDT
Civil Twilight 7:25 AM CDT 7:11 PM CDT
Nautical Twilight 6:54 AM CDT 7:41 PM CDT
Astronomical Twilight 6:24 AM CDT 8:11 PM CDT
Moon 4:42 AM CDT (10/25) 5:42 PM CDT (10/25)
Length of Visible Light 11h 46m
Length of Day
10h 52m
Waning Crescent, 9% of the Moon is Illuminated
Oct 25
Waning Crescent
Oct 27
New
Nov 4
First Quarter
Nov 12
Full
Nov 19
Last Quarter

Hourly Weather History & Observations

Time (CDT) Temp. Windchill Dew Point Humidity Pressure Visibility Wind Dir Wind Speed Gust Speed Precip Events Conditions
12:56 AM 42.1 °F 36.6 °F 28.0 °F 58% 30.38 in - North 9.2 mph - N/A   Unknown
1:56 AM 42.1 °F 37.1 °F 28.0 °F 58% 30.37 in - North 8.1 mph - N/A   Unknown
2:56 AM 41.0 °F 34.7 °F 28.0 °F 60% 30.36 in - North 10.4 mph - N/A   Unknown
3:56 AM 41.0 °F 34.3 °F 28.0 °F 60% 30.36 in - North 11.5 mph - N/A   Unknown
6:56 AM 37.9 °F 31.5 °F 28.0 °F 68% 30.38 in - North 9.2 mph - N/A   Unknown
7:56 AM 37.9 °F 32.1 °F 27.0 °F 65% 30.40 in - North 8.1 mph - N/A   Unknown
8:56 AM 37.9 °F 31.5 °F 26.1 °F 62% 30.39 in - North 9.2 mph - N/A   Unknown
9:56 AM 39.9 °F 33.9 °F 26.1 °F 58% 30.38 in - North 9.2 mph - N/A   Unknown
10:56 AM 43.0 °F 37.2 °F 27.0 °F 53% 30.38 in - NNE 10.4 mph - N/A   Unknown
11:56 AM 48.9 °F - 26.1 °F 41% 30.35 in - NE 13.8 mph 23.0 mph N/A   Unknown
12:56 PM 52.0 °F - 26.1 °F 37% 30.32 in - NNE 12.7 mph 23.0 mph N/A   Unknown
1:56 PM 54.0 °F - 25.0 °F 33% 30.28 in - NNE 8.1 mph 19.6 mph N/A   Unknown
3:56 PM 57.0 °F - 24.1 °F 28% 30.21 in - NNE 11.5 mph 19.6 mph N/A   Unknown
4:56 PM 57.0 °F - 21.9 °F 26% 30.19 in - North 12.7 mph - N/A   Unknown
5:56 PM 55.0 °F - 21.9 °F 28% 30.19 in - NNE 9.2 mph - N/A   Unknown
6:56 PM 48.0 °F - 24.1 °F 39% 30.19 in - NE 5.8 mph - N/A   Unknown
7:56 PM 45.0 °F - 26.1 °F 48% 30.19 in - Calm Calm - N/A   Unknown
8:56 PM 42.1 °F 40.2 °F 26.1 °F 53% 30.19 in - North 3.5 mph - N/A   Unknown
9:56 PM 39.0 °F - 26.1 °F 60% 30.18 in - Calm Calm - N/A   Unknown
10:56 PM 35.1 °F 32.2 °F 27.0 °F 72% 30.16 in - North 3.5 mph - N/A   Unknown
11:56 PM 36.0 °F - 28.0 °F 73% 30.13 in - Calm Calm - N/A   Unknown